User: anonymous   Login
Location: Unspecified
(0.0000°N, 0.0000°E)
Time: 14:47:23
(UTC+00:00)
Language:

BEESAT 2 - Orbit

View from above orbital plane
View from above orbital plane
View from above satellite
View from above satellite

Ground track
Ground track

The orbit data is extracted from the following two-line orbital elements,

1 39136U 13015G   17202.89523508 +.00001044 +00000-0 +65161-4 0  9996
2 39136 064.8701 125.5983 0033201 278.7720 080.9645 15.15160665234147
Epoch (UTC): 21 July 2017 21:29:08
Eccentricity: 0.0033201
inclination: 64.8701°
perigee height: 497 km
apogee height: 543 km
right ascension of ascending node: 125.5983°
argument of perigee: 278.7720°
revolutions per day: 15.15160665
mean anomaly at epoch: 80.9645°
orbit number at epoch: 23414

The dashed part of the orbit path shows where the satellite is in the earth's shadow,  

DLR